Tracking 19817 objects as of 19-Aug-2019
HD Live streaming from Space Station
objects crossing your sky now

FENGYUN 1C DEB

Track FENGYUN 1C DEB now!
10-day predictions


NORAD ID: 31316
Int'l Code: 1999-025BPU
Perigee: 783.8 km
Apogee: 954.3 km
Inclination: 99.0 °
Period: 102.2 minutes
Semi major axis: 7240 km
RCS: 0.0146 m2 (small)
Launch date: May 10, 1999
Source: People's Republic of China (PRC)
Launch site: Taiyaun Space Center, China (TSC)

Note: This is SATELLITE DEBRIS
aabbcc
Your satellite tracking list
Your tracking list is empty




NASA's NSSDC Master Catalog

Two Line Element Set (TLE):
1 31316U 99025BPU 19230.39566680 +.00000627 +00000-0 +36273-3 0  9996
2 31316 098.9984 282.7389 0117760 303.7031 055.2956 14.09248610636485
Source of the keplerian elements: AFSPC